Regional Weather Roundup
Issued by NWS

Home | Current Version | Previous Version | Text Only | Print | Product List | Glossary On
Versions: 1 2 3 4 5 6 7 8 9 10 11 12 13 14 15 16 17 18 19 20 21 22 23 24 25 26 27 28 29 30 31 32 33 34 35 36 37 38 39 40 41 42 43 44 45 46 47 48 49 50
000
ASUS44 KOUN 182100
RWROK

WEATHER ROUNDUP FOR OKLAHOMA
NATIONAL WEATHER SERVICE NORMAN OK
400 PM CDT THU SEP 18 2014

NOTE: "FAIR" INDICATES FEW OR NO CLOUDS BELOW 12,000 FEET WITH NO
      SIGNIFICANT WEATHER AND/OR OBSTRUCTIONS TO VISIBILITY.

OKZ001>007-009>012-014-015-017-182200-
NORTHWEST OKLAHOMA AND THE PANHANDLE

CITY           SKY/WX    TMP DP  RH WIND       PRES   REMARKS
GAGE           SUNNY     87  65  47 SE15      29.93F
ENID/WOODRING  MOSUNNY   91  59  33 SE18      29.89F HX  90
$$

OKZ016-021>023-033>039-044-045-182200-
SOUTHWEST OKLAHOMA

CITY           SKY/WX    TMP DP  RH WIND       PRES   REMARKS
LAWTON/REGL    CLOUDY    84  67  56 VRB3      29.90F
FREDERICK      CLOUDY    80  67  64 SE13      29.89F
CLINTON        PTSUNNY   82  65  56 S12       29.96F
HOBART         PTSUNNY   83  67  58 S10       29.93F
$$

OKZ018>020-024>031-182200-
CENTRAL OKLAHOMA

CITY           SKY/WX    TMP DP  RH WIND       PRES   REMARKS
OKLAHOMA CITY  MOSUNNY   88  64  44 SW3       29.90F
OKC/WILEY POST SUNNY     86  66  51 W5        29.90F
OKC/TINKER AFB SUNNY     89  64  43 W7        29.89F
STILLWATER     SUNNY     88  64  44 S5        29.90F
GUTHRIE        SUNNY     86  67  52 VRB5      29.89F
$$

OKZ008-013-054>072-182200-
NORTHEAST OKLAHOMA

CITY           SKY/WX    TMP DP  RH WIND       PRES   REMARKS
TULSA          PTSUNNY   84  65  52 N3        29.90R
TULSA/JONES    PTSUNNY   82  68  62 CALM      29.89F
PONCA CITY     SUNNY     87  57  35 E7        29.90F
BARTLESVILLE   PTSUNNY   74  65  73 NE6       29.93R
MUSKOGEE       MOSUNNY   82  69  64 N5        29.91F
$$

OKZ032-040>043-046>053-073>077-182200-
SOUTH CENTRAL/SOUTHEAST OKLAHOMA

CITY           SKY/WX    TMP DP  RH WIND       PRES   REMARKS
MCALESTER      SUNNY     87  65  47 S6        29.88F
$$



USA.gov is the U.S. government's official web portal to all federal, state and local government web resources and services.